Temp
28 28 29 27 28 30 30 30 30 32 32 33 33 33 33 33 33 33 31 29 28 28 27 25 24 23 22 23 25 24 24 23
28 29 29 29 29 28 29 27 27 30 31 31 32 31 33 33 34 33 32 30 29 28 28 27 25 24 22 23 26 26 25 24
29 27 28 28 28 29 30 30 29 29 32 33 32 32 32 33 33 34 33 32 30 29 28 28 27 25 24 22 22 25 26 26
27 29 29 29 28 29 28 27 29 30 32 33 33 33 33 33 33 33 33 33 32 31 30 28 27 26 25 24 23 24 27 27
27 28 29 28 29 29 29 30 28 29 30 33 31 31 31 32 32 32 32 30 30 31 30 29 28 26 26 25 24 23 22 23
27 27 27 27 28 29 29 29 29 30 31 31 31 31 31 31 31 31 30 30 30 30 30 29 28 27 26 26 25 24 24 22
25 23 24 28 28 29 28 28 29 30 30 31 31 31 31 31 30 30 30 30 30 29 29 28 28 27 26 25 25 25 24 23
21 22 22 23 24 26 28 29 29 29 29 32 31 29 30 29 29 29 30 30 30 30 28 28 28 28 26 25 25 24 24 23
21 22 22 22 23 24 25 26 27 26 28 29 29 29 29 29 29 29 29 29 30 30 30 29 29 29 29 26 24 24 24 22
20 20 19 24 27 26 25 26 26 26 27 28 28 28 28 28 29 29 30 30 30 30 31 31 29 30 28 26 27 25 23 24
18 19 22 23 23 24 24 25 27 27 27 28 27 28 28 28 29 29 29 29 29 30 30 29 29 29 28 26 25 23 25 27
17 17 19 23 24 23 23 22 26 24 25 26 26 27 29 29 29 30 29 29 29 29 28 28 31 29 27 26 25 27 26 25
16 16 19 23 22 21 20 22 22 22 23 22 23 25 24 23 24 25 26 27 27 26 27 29 29 30 27 26 28 26 23 23
15 15 16 20 20 19 19 19 19 20 20 20 20 19 20 20 22 23 25 26 25 24 25 24 27 27 28 29 26 23 22 22
16 16 18 18 18 17 17 18 18 18 19 18 18 18 19 21 22 23 23 23 24 24 23 22 24 23 24 25 23 22 22 22
14 15 16 15 15 16 16 16 17 17 18 18 18 17 18 20 21 21 20 20 21 21 21 20 20 21 21 23 23 23 22 22
13 14 14 15 15 15 15 16 16 17 17 16 16 15 18 20 19 19 18 18 19 19 19 18 18 19 20 22 22 20 20 21
13 14 14 14 15 13 13 13 14 16 16 16 14 14 15 15 15 15 16 16 17 16 16 17 17 19 21 22 22 23 22 22
12 13 13 13 12 11 12 13 14 15 15 13 13 14 13 14 15 15 15 15 16 17 16 16 18 19 19 18 21 21 19 20
Height
1405 1412 1417 1428 1429 1416 1422 1423 1432 1412 1415 1411 1411 1414 1421 1427 1430 1434 1443 1451 1455 1461 1468 1475 1480 1485 1490 1495 1501 1508 1513 1518
1402 1408 1409 1409 1415 1434 1424 1449 1450 1420 1417 1415 1407 1414 1414 1419 1422 1428 1435 1442 1449 1454 1459 1464 1470 1475 1481 1486 1491 1497 1504 1509
1390 1395 1400 1410 1412 1414 1414 1414 1425 1431 1410 1388 1399 1402 1408 1411 1416 1420 1428 1434 1440 1445 1450 1457 1465 1471 1474 1479 1483 1488 1494 1499
1386 1384 1390 1393 1402 1405 1413 1424 1416 1411 1403 1388 1393 1397 1403 1407 1412 1417 1422 1428 1434 1439 1445 1450 1454 1461 1464 1468 1473 1475 1481 1488
1391 1386 1384 1386 1391 1394 1399 1396 1410 1421 1412 1392 1398 1401 1404 1407 1411 1416 1420 1426 1430 1433 1437 1441 1446 1451 1456 1460 1462 1468 1473 1478
1377 1379 1382 1388 1384 1386 1395 1400 1400 1400 1399 1397 1398 1402 1406 1410 1413 1416 1420 1423 1426 1428 1430 1434 1438 1441 1444 1449 1454 1460 1465 1468
1381 1390 1388 1375 1381 1381 1386 1392 1397 1392 1396 1395 1397 1401 1405 1409 1412 1414 1418 1420 1422 1424 1426 1428 1431 1434 1436 1441 1446 1451 1454 1459
1399 1396 1398 1396 1391 1385 1383 1383 1390 1391 1393 1388 1395 1403 1404 1408 1411 1412 1412 1415 1418 1419 1420 1422 1423 1425 1428 1431 1435 1442 1445 1446
1399 1393 1397 1401 1390 1393 1394 1392 1394 1399 1399 1398 1400 1403 1406 1407 1408 1408 1408 1408 1410 1413 1415 1417 1418 1418 1420 1422 1428 1430 1432 1440
1397 1401 1413 1376 1372 1380 1389 1390 1392 1395 1395 1396 1398 1401 1403 1403 1403 1402 1402 1402 1403 1406 1408 1410 1411 1414 1414 1415 1416 1420 1423 1428
1411 1404 1381 1378 1385 1386 1388 1387 1386 1387 1389 1392 1395 1395 1394 1397 1396 1395 1395 1396 1397 1399 1400 1402 1403 1405 1407 1408 1409 1412 1413 1416
1407 1411 1402 1379 1378 1387 1389 1398 1384 1392 1394 1393 1394 1391 1385 1387 1389 1389 1390 1391 1391 1391 1392 1392 1393 1396 1398 1400 1402 1403 1405 1411
1415 1408 1391 1379 1387 1393 1401 1398 1393 1395 1396 1397 1396 1391 1389 1386 1385 1387 1386 1386 1386 1385 1384 1385 1387 1389 1390 1394 1393 1398 1403 1407
1414 1411 1408 1389 1393 1398 1399 1398 1398 1397 1397 1397 1396 1395 1389 1387 1383 1382 1383 1382 1381 1379 1378 1380 1381 1384 1385 1386 1390 1394 1398 1401
1400 1396 1397 1395 1397 1399 1400 1400 1398 1395 1394 1393 1391 1390 1387 1382 1380 1378 1379 1379 1378 1378 1377 1376 1377 1380 1381 1382 1385 1389 1392 1394
1407 1401 1398 1402 1402 1401 1403 1400 1399 1397 1394 1391 1387 1384 1382 1379 1378 1378 1378 1376 1375 1376 1377 1375 1376 1378 1380 1380 1383 1385 1388 1391
1404 1402 1401 1398 1399 1401 1401 1399 1396 1393 1390 1386 1384 1380 1379 1378 1379 1379 1378 1376 1375 1377 1378 1376 1375 1375 1377 1378 1380 1383 1385 1388
1391 1393 1394 1395 1396 1398 1396 1396 1394 1391 1388 1386 1384 1382 1381 1378 1378 1378 1377 1376 1374 1375 1377 1377 1377 1377 1378 1379 1379 1381 1384 1387
1389 1390 1390 1392 1394 1395 1393 1391 1389 1388 1385 1383 1382 1381 1379 1378 1378 1377 1375 1375 1375 1375 1377 1379 1377 1378 1379 1379 1379 1379 1381 1382
Wind_Speed
20 21 26 25 25 27 6 5 9 17 19 18 10 18 25 26 20 21 25 31 34 37 38 38 38 41 46 46 44 44 44 44
24 27 25 20 25 22 15 17 18 13 19 12 22 21 19 22 27 24 27 29 30 32 37 39 40 40 42 44 46 46 46 47
22 25 26 22 19 23 18 17 13 12 11 15 17 16 21 20 26 27 26 27 28 30 32 35 36 37 39 40 44 45 47 49
26 25 26 29 23 27 14 23 19 14 5 4 7 15 17 21 24 25 25 22 22 23 24 28 33 36 40 42 41 47 48 47
16 21 23 30 28 25 25 16 21 16 4 10 7 3 6 9 7 11 12 14 18 20 23 26 28 33 35 37 41 40 42 46
19 20 19 26 29 27 27 19 17 17 15 11 6 5 7 3 3 4 10 13 13 16 23 24 26 32 38 35 36 37 38 40
15 2 6 18 28 30 30 26 23 18 20 17 7 8 7 10 13 11 6 4 8 13 17 20 22 27 33 33 35 36 42 40
14 10 7 10 12 13 22 27 26 25 22 11 11 7 17 18 18 20 22 22 21 16 17 16 19 23 25 32 35 37 41 47
15 10 10 15 20 19 18 17 17 21 16 17 17 16 20 22 22 22 21 22 20 18 19 19 20 21 23 25 27 36 42 42
6 6 15 11 10 20 23 18 19 18 17 15 15 20 23 24 24 26 25 24 23 23 21 21 20 19 18 20 24 31 40 40
10 12 9 5 3 8 11 17 17 15 9 12 18 24 28 26 26 26 28 27 26 26 25 25 23 21 19 21 23 28 36 34
7 15 14 4 16 2 2 9 6 6 8 9 9 10 12 24 26 25 25 26 25 22 20 20 22 22 21 22 24 30 33 32
13 11 9 8 8 2 11 4 6 4 7 10 9 13 22 25 23 20 18 20 20 21 21 22 19 17 20 22 26 26 25 26
13 16 21 7 9 12 11 12 13 13 13 15 16 18 25 25 28 26 23 19 18 16 16 16 20 18 20 23 20 21 22 24
9 11 13 7 12 14 19 19 18 22 22 22 23 21 23 23 20 20 18 15 11 11 11 9 13 13 15 15 17 18 20 22
17 21 22 19 24 22 17 23 22 23 24 23 27 25 20 17 13 10 6 3 2 4 6 7 8 10 10 12 13 13 14 15
19 21 24 25 25 25 24 20 20 22 23 22 24 20 15 9 7 6 4 3 6 6 6 8 9 11 11 13 13 9 10 11
15 16 20 24 22 14 18 19 20 21 21 20 17 10 8 6 8 7 7 8 9 9 7 9 9 8 8 9 9 9 7 6
23 24 18 20 20 23 24 25 24 22 19 17 15 10 10 9 8 11 13 13 14 14 12 8 8 7 5 4 3 4 4 4
Wind_Direction
205 201 201 193 215 215 251 194 267 225 219 247 254 223 220 223 219 213 201 204 207 208 209 209 208 208 210 215 221 222 224 225
195 200 206 201 206 212 231 239 233 225 233 226 208 212 218 217 219 208 204 204 207 209 211 212 213 212 212 218 224 223 224 228
184 201 192 202 204 213 225 231 218 236 238 207 230 211 214 210 212 210 204 203 206 212 214 215 216 215 215 216 220 225 226 229
202 198 215 202 204 202 216 212 239 279 248 103 226 213 215 213 215 215 209 214 216 214 212 214 214 214 215 216 216 222 229 230
187 203 203 215 204 211 219 233 213 221 218 127 103 207 152 209 211 227 225 222 218 210 212 214 214 214 215 217 219 218 219 224
215 206 194 216 205 213 211 223 227 211 225 157 186 148 150 189 197 227 207 221 222 223 218 215 212 214 214 215 217 217 217 216
248 318 270 218 213 213 215 223 227 227 215 240 222 245 255 289 296 297 271 228 242 237 221 218 223 224 225 222 217 214 218 217
233 211 226 227 228 235 231 226 232 242 249 254 226 276 282 279 285 285 281 274 272 257 231 235 238 232 227 228 222 216 216 221
221 205 241 235 220 215 225 226 233 234 240 247 251 250 250 266 272 274 277 270 267 246 242 248 244 248 243 235 222 218 221 219
243 158 233 251 206 215 226 228 226 245 257 261 256 254 254 257 261 265 262 260 262 262 260 256 251 242 242 226 233 224 222 223
235 217 275 179 146 207 212 226 229 240 251 248 258 257 251 254 253 253 256 257 261 263 265 259 252 250 234 224 224 218 224 229
214 238 223 298 195 3 89 241 229 223 255 277 291 258 249 251 248 258 262 263 261 262 258 255 257 247 232 221 216 225 224 225
227 246 241 257 91 95 192 84 32 323 309 304 284 286 300 301 291 289 283 273 265 257 251 246 243 236 222 217 224 224 220 220
232 239 236 269 314 234 11 331 331 331 334 324 309 299 291 290 286 279 274 277 277 258 243 235 233 230 224 225 220 217 213 217
232 227 257 259 284 307 312 307 312 317 318 319 314 308 299 293 287 279 271 267 263 246 229 222 223 208 205 205 202 206 208 213
264 254 270 276 273 278 290 297 299 296 302 306 310 311 299 284 274 264 260 245 195 176 182 165 156 156 168 173 181 188 197 204
250 253 262 258 269 274 281 287 291 294 299 303 308 303 294 256 230 220 198 131 120 121 118 110 126 143 154 162 163 164 185 197
245 248 242 247 248 282 284 288 293 294 292 291 278 260 242 208 188 169 159 138 129 119 101 81 93 112 132 151 164 175 188 208
250 252 270 265 259 273 275 275 281 284 277 270 248 216 185 159 145 129 120 105 94 94 80 71 82 82 92 93 132 159 175 190